INGA4: Red River, Index, AR

                                SHEF ID:       INGA4     Red River at Index, AR
STATION TYPE: Stream Gauge
Regulating: Stage = 19.80, Flow = 104273

PRECIP STAGE RIV-FLOW WTR-TEMP BAT-LOAD
in ft cfs F volt
Ccp-Rev Ccp-Rev Ccp-Rev Ccp-Rev Ccp-Rev
(America/Chicago)
03/24 00:00 0.00 0.63 2388 69.73 12.67
03/24 01:00 0.00 0.62 2362 69.49 12.67
03/24 02:00 0.00 0.61 2336 69.24 12.65
03/24 03:00 0.00 0.60 2311 68.94 12.63
03/24 04:00 0.00 0.59 2285 68.59 12.62
03/24 05:00 0.00 0.58 2260 68.25 12.59
03/24 06:00 0.00 0.57 2235 67.86 12.57
03/24 07:00 0.00 0.56 2209 67.37 12.56
03/24 08:00 0.00 0.56 2209 66.97 12.53
03/24 09:00 0.00 0.56 2209 66.56 12.63
03/24 10:00 0.00 0.55 2184 66.20 13.34
03/24 11:00 0.00 0.55 2184 65.97 13.55
03/24 12:00 0.00 0.54 2159 65.82 13.71
03/24 13:00 0.00 0.54 2159 65.82 13.65
03/24 14:00 0.00 0.53 2134 65.86 13.65
03/24 15:00 0.00 0.52 2109 65.86 13.61
03/24 16:00 0.00 0.52 2109 65.97 13.49
03/24 17:00 0.00 0.51 2084 66.24 13.39
03/24 18:00 0.00 0.52 2109 66.36 13.32
03/24 19:00 0.00 0.52 2109 66.40 13.26
03/24 20:00 0.00 0.51 2084 66.40 13.09
03/24 21:00 0.00 0.50 2060 66.43 12.80
03/24 22:00 0.00 0.50 2060 66.65 12.74
03/24 23:00 0.00 0.49 2035 66.92 12.71
Data processed at Wed 25Mar2026 04:11 GMT

NOTICE: If you are parsing this page

Please convert to using our Data API. Starting early 2026 we will be migrating to: https://water.usace.army.mil with modern pages rendered in JavaScript. When this migration completes you will no longer be able to scrape this page! CWMSDataAPI (CDA)

Timeseries IDs (TSIDs)

TSIDs used from left to right in the data table
INDX.Precip-Inc.Total.1Hour.1Hour.Ccp-Rev
INDX.Stage.Inst.1Hour.0.Ccp-Rev
INDX.Flow.Inst.1Hour.0.Ccp-Rev
INDX.Temp-Water.Inst.1Hour.0.Ccp-Rev
INDX.Volt-Battery Load.Inst.1Hour.0.Ccp-Rev

                            

All information presented herein is the property of the government of the United States of America and may be revised or deleted at any time without prior notice. Dissemination of this information without the expressed written consent of the Public Affairs Office, Tulsa District U.S. Army Corps of Engineers is strictly prohibited. These data are gathered electronically and, as presented, have NOT undergone any form of quality control. These data are NOT guaranteed to be valid or correct.